Probability
0 0 0 0 0 0 0 0 0 0 0 0 0 0 0 0 0 0 0 0 3 8 8 4 1 0 0 0 0 1 1 1 0 0 0 0 0 0 0 0 0 0 0 0 0 0 0 0 0
0 0 0 0 0 0 0 0 0 0 0 0 0 0 0 0 0 0 0 0 3 8 10 7 3 1 0 0 0 0 0 0 0 0 0 0 0 0 0 0 0 0 0 0 0 0 0 0 0
0 0 0 0 0 0 0 0 0 0 0 0 0 0 0 1 1 1 1 1 3 7 11 11 8 4 2 1 0 0 0 0 0 0 0 0 0 0 0 0 0 0 0 0 0 0 0 0 0
0 0 0 0 0 0 0 0 0 0 0 0 0 0 1 2 2 3 3 3 4 7 10 13 13 9 5 2 1 0 0 0 0 0 0 0 0 0 0 0 0 0 0 0 0 0 0 0 0
0 0 0 0 0 0 0 0 0 0 0 0 0 1 2 4 4 4 5 5 6 7 9 13 16 14 10 5 2 1 0 0 0 0 0 0 0 0 0 0 0 0 0 0 0 0 0 0 0
0 0 0 0 0 0 0 0 0 0 0 0 0 1 4 6 7 7 6 5 6 6 9 14 15 15 13 8 5 3 1 0 0 0 0 0 0 0 0 0 0 0 0 0 0 0 0 0 0
0 0 0 0 0 0 0 0 0 0 0 1 2 2 8 13 15 13 9 6 6 5 9 13 13 11 11 9 6 4 2 1 0 0 0 0 0 0 0 0 0 0 0 0 0 0 0 0 0
0 0 0 0 0 0 0 0 0 0 1 4 4 5 15 28 29 23 17 14 13 12 11 13 13 10 8 8 7 4 3 2 1 0 0 0 0 0 0 0 0 0 0 0 0 0 0 0 0
0 0 0 0 0 0 0 0 0 0 2 6 9 15 29 44 45 37 30 26 27 24 19 16 16 14 10 8 7 4 2 2 1 0 0 0 0 0 0 0 0 0 0 0 0 0 0 0 0
0 0 0 0 0 0 0 0 0 1 3 8 17 29 46 57 56 48 40 37 39 36 29 23 20 19 16 13 11 7 3 2 1 0 0 0 0 0 0 0 0 0 0 0 0 0 0 0 0
0 0 0 0 0 0 0 0 0 1 4 9 21 40 57 65 61 52 44 41 43 42 36 30 27 25 24 22 18 13 8 5 3 1 0 0 0 0 0 0 0 0 0 0 0 0 0 0 0
0 0 0 0 0 0 0 1 1 3 6 10 21 42 61 67 63 53 44 38 38 39 38 36 36 36 36 32 26 19 12 8 5 3 1 0 0 0 0 0 0 0 0 0 0 0 0 0 0
0 0 0 0 0 0 0 1 3 5 9 14 25 44 59 63 60 54 47 38 34 36 39 40 42 44 46 43 33 23 17 11 8 5 2 0 0 0 0 0 0 0 0 0 0 0 0 0 0
0 0 0 0 0 0 0 2 4 7 13 20 31 44 54 57 57 55 51 44 38 37 39 40 42 45 49 46 37 27 20 16 10 5 2 0 0 0 0 0 0 0 0 0 0 0 0 0 0
0 0 0 0 0 0 0 2 6 11 17 24 32 42 50 54 55 53 50 46 41 38 37 35 37 41 45 44 38 31 24 16 10 6 2 0 0 0 0 0 0 0 0 0 0 0 0 0 0
0 0 0 0 0 0 0 3 9 14 18 24 32 42 50 52 49 46 43 40 37 35 32 31 32 36 40 43 40 35 27 18 12 7 3 0 0 0 0 0 0 0 0 0 0 0 0 0 0
0 0 0 0 0 0 0 3 10 13 14 20 32 42 47 44 39 37 38 34 31 29 27 26 30 33 37 43 44 38 32 25 16 10 5 1 0 0 0 0 0 0 0 0 0 0 0 0 0
0 0 0 0 0 0 0 2 8 11 10 13 25 35 37 33 29 29 31 28 24 22 21 23 29 32 36 43 44 38 33 27 19 11 6 2 0 0 0 0 0 0 0 0 0 0 0 0 0
0 0 0 0 0 0 0 1 5 9 7 8 16 24 25 23 21 22 23 22 19 17 16 18 24 29 33 38 40 36 31 26 19 11 6 3 0 0 0 0 0 0 0 0 0 0 0 0 0
0 0 0 0 0 0 0 1 3 6 5 4 8 12 14 15 17 18 19 17 15 15 14 14 17 22 27 31 34 34 30 24 17 12 8 5 2 0 0 0 0 0 0 0 0 0 0 0 0
0 0 0 0 0 0 0 1 2 3 2 2 3 3 6 11 15 17 15 12 11 12 12 11 12 16 20 25 28 27 25 21 16 12 9 7 3 1 0 0 0 0 0 0 0 0 0 0 0
0 0 0 0 0 0 0 1 1 2 3 3 1 1 3 8 11 13 11 7 6 7 9 11 13 16 18 21 22 20 17 15 13 11 10 7 4 1 0 0 0 0 0 0 0 0 0 0 0
0 0 0 0 0 0 0 0 1 2 3 4 2 1 2 4 6 7 6 4 2 3 6 11 16 18 18 18 18 15 13 12 11 10 8 6 4 1 0 0 0 0 0 0 0 0 0 0 0
0 0 0 0 0 0 0 0 0 1 2 2 2 1 0 1 2 2 3 2 1 1 5 10 16 18 16 14 14 13 11 9 9 7 5 4 3 1 0 0 0 0 0 0 0 0 0 0 0
0 0 0 0 0 0 0 0 0 0 0 0 0 0 0 0 0 2 3 2 2 2 3 8 14 16 14 13 13 12 10 8 6 4 3 3 2 1 0 0 0 0 0 0 0 0 0 0 0
0 0 0 0 0 0 0 0 0 0 0 0 0 0 0 0 0 1 2 3 3 2 3 6 11 13 13 13 12 11 10 8 5 3 1 2 2 1 0 0 0 0 0 0 0 0 0 0 0
0 0 0 0 0 0 0 0 0 0 0 0 0 0 0 0 0 0 1 3 3 2 2 5 8 9 11 12 11 10 9 8 4 1 0 1 1 0 0 0 0 0 0 0 0 0 0 0 0
0 0 0 0 0 0 0 0 0 0 0 0 0 0 0 1 2 1 1 2 1 1 1 3 5 7 8 9 9 9 8 6 4 2 1 1 1 1 1 0 0 0 0 0 0 0 0 0 0
0 0 0 0 0 0 0 0 0 0 0 0 0 1 0 1 3 3 1 0 0 0 0 1 2 4 5 5 7 9 8 6 5 5 3 2 2 2 2 1 0 0 0 0 0 0 0 0 0
0 0 0 0 0 0 0 0 0 0 0 0 0 1 0 2 4 3 1 0 0 0 0 0 1 3 3 3 4 8 9 7 7 7 4 2 3 3 2 1 0 0 0 0 0 0 0 0 0
Wind_Speed
10 8 6 5 8 4 3 4 2 2 2 2 2 1 1 2 3 5 6 17 20 20 19 18 16 15 15 14 14 14 14 14 14 13 12 11 10 10 9 9 9 9 9 9 9 9 9 10 10
7 5 6 6 6 1 5 3 2 3 4 3 3 2 1 2 5 6 10 18 21 20 19 18 18 16 15 15 14 14 14 14 13 13 12 11 10 10 10 9 9 9 9 9 9 9 9 9 10
6 7 7 6 3 2 5 4 3 2 3 3 2 1 2 3 5 6 11 20 20 19 18 18 19 17 16 15 14 14 14 14 13 12 12 11 10 10 10 9 9 9 9 9 9 9 9 9 10
5 6 6 7 1 3 3 3 1 2 4 3 3 2 4 4 3 7 17 21 20 19 18 20 18 17 17 16 15 14 14 13 13 12 11 11 10 9 9 9 9 9 9 9 8 8 8 8 9
7 6 8 5 2 2 1 3 3 4 3 4 4 1 5 5 5 11 18 20 20 19 17 20 18 17 17 16 15 14 14 13 12 12 11 10 10 9 9 9 9 9 9 9 8 8 8 8 8
6 6 6 2 4 1 1 1 3 4 3 3 4 3 5 6 9 14 18 18 18 18 18 19 18 17 16 16 15 14 14 13 12 11 11 10 10 9 9 9 8 8 8 8 8 7 7 7 7
7 6 3 0 2 1 1 1 4 4 4 3 3 2 6 8 10 15 17 17 17 17 17 17 17 16 16 15 14 14 13 13 12 11 11 10 9 9 8 8 8 8 7 7 7 7 7 7 7
6 6 5 2 1 1 2 1 3 6 3 2 4 4 5 10 12 15 16 15 15 14 15 15 16 15 15 14 14 13 13 12 11 10 10 9 9 9 8 8 7 7 6 6 6 6 6 6 6
7 8 3 1 1 3 2 4 2 3 4 5 4 2 6 15 16 16 15 15 14 13 13 14 14 14 13 13 14 14 13 12 11 10 10 9 8 9 8 8 7 6 5 5 5 5 5 5 7
7 7 1 3 5 7 6 7 5 5 7 7 6 4 11 17 17 17 17 18 18 16 14 12 13 12 12 10 11 9 10 10 9 8 9 6 5 4 5 9 6 5 5 5 5 4 5 6 6
6 7 5 5 6 9 10 8 7 8 7 6 7 10 14 17 16 16 16 16 17 16 14 13 12 12 11 8 8 6 5 7 7 8 7 5 5 5 5 5 6 6 6 5 6 6 4 2 1
7 8 8 9 9 9 10 8 7 8 6 3 3 11 16 17 17 16 15 15 15 15 14 13 12 11 10 8 7 7 6 6 6 7 7 6 4 3 3 2 3 3 3 2 2 2 2 2 2
9 8 8 10 11 10 9 8 8 6 3 1 5 12 16 16 15 14 13 13 14 15 15 13 12 11 9 7 7 7 7 7 6 6 6 5 4 3 3 2 2 2 2 3 3 3 3 3 3
6 10 12 10 7 4 7 7 5 2 0 3 7 12 14 14 14 14 13 13 14 14 14 12 12 12 10 8 7 6 7 5 6 6 6 5 3 3 3 3 3 2 2 2 2 3 3 3 2
9 11 9 3 3 2 7 7 3 0 2 5 8 10 12 12 13 14 14 14 13 12 12 12 12 12 11 10 9 6 6 7 6 5 5 5 4 3 3 3 4 3 3 3 3 3 3 4 4
9 10 7 2 2 2 7 6 4 2 4 5 7 9 11 11 12 12 12 12 12 12 12 12 11 12 11 9 8 5 5 6 5 5 5 5 4 4 4 3 3 3 3 3 3 4 4 3 3
9 8 5 1 0 4 7 8 3 2 4 5 7 9 10 11 11 11 11 12 12 12 12 12 12 12 10 9 7 6 5 5 5 4 4 5 4 4 4 3 2 4 4 3 4 3 3 3 3
4 6 5 5 3 7 9 8 3 2 4 5 7 8 9 10 11 10 10 11 11 11 12 13 12 12 10 8 6 6 6 5 5 4 4 5 4 5 4 3 3 4 4 3 2 2 2 2 3
8 9 9 6 5 8 9 9 4 2 5 6 7 8 9 10 10 10 10 10 11 11 11 11 12 12 10 8 8 7 7 6 5 4 5 5 5 5 4 3 4 4 3 3 4 4 5 4 3
10 11 10 5 4 7 10 9 2 3 5 5 6 8 9 9 10 10 11 11 12 12 12 11 12 12 11 8 6 5 6 5 5 4 5 5 5 5 5 3 4 4 3 4 4 4 3 3 3
11 11 9 9 9 7 9 7 3 4 5 5 6 7 7 8 9 10 11 11 11 11 12 11 12 12 11 10 7 7 6 5 5 6 5 5 5 5 3 4 3 3 4 4 4 4 5 4 4
12 7 8 9 11 7 5 8 1 3 5 6 7 7 7 7 8 9 10 10 11 11 11 12 12 11 11 11 10 11 9 8 7 6 5 6 6 6 5 5 4 3 3 3 5 4 3 4 4
10 5 7 9 10 10 5 8 2 3 3 4 6 7 7 7 7 8 9 9 9 10 11 11 12 11 11 11 11 10 8 7 6 6 7 6 6 5 5 5 4 4 3 2 1 2 4 4 4
7 7 8 9 10 9 3 7 4 2 1 1 5 7 7 7 7 8 7 8 8 9 10 10 11 11 11 11 11 10 10 9 9 8 8 7 6 6 6 6 4 4 3 3 3 2 4 3 2
10 10 9 9 8 4 2 6 4 3 1 1 4 7 7 7 8 8 9 9 8 9 10 10 11 11 11 11 10 11 11 10 10 9 8 7 6 6 7 6 5 4 3 3 3 3 2 3 3
12 13 11 8 6 4 2 4 3 3 2 3 5 7 8 8 8 9 9 9 9 10 10 11 11 11 11 10 9 10 10 8 7 8 7 7 5 5 7 6 6 5 5 4 4 4 4 2 3
11 12 11 11 10 9 5 3 2 4 6 6 7 8 9 8 9 9 9 10 10 10 10 11 11 11 10 10 9 9 9 8 7 7 7 6 5 5 7 7 6 6 6 5 5 3 3 3 4
10 8 7 10 9 9 6 5 2 3 6 8 9 9 9 9 9 10 10 11 10 10 10 10 11 11 11 11 10 8 9 8 7 7 7 6 6 5 7 7 7 7 7 6 6 5 4 4 4
10 9 9 9 8 9 8 3 4 1 3 7 9 10 10 10 10 10 10 11 12 11 12 11 11 10 10 10 9 9 9 9 8 7 7 7 7 7 8 8 8 7 7 7 7 6 5 6 5
9 11 11 10 9 9 10 4 5 1 3 6 8 10 10 10 10 10 11 12 12 12 12 12 11 11 10 10 9 9 8 8 8 8 8 8 8 8 8 8 8 8 8 8 8 8 7 7 7
Wind_Direction
188 200 225 240 239 222 59 58 16 52 70 67 109 213 320 355 349 50 105 150 148 148 144 152 151 148 144 140 138 136 134 133 133 132 131 129 128 124 119 114 109 104 101 100 99 101 99 101 104
188 206 233 243 258 121 86 63 44 45 63 113 157 198 225 82 52 94 139 150 151 149 149 153 149 149 146 144 142 139 137 135 135 134 132 129 127 123 118 113 109 106 102 100 101 102 102 103 106
196 236 260 253 258 22 59 61 45 77 131 180 166 211 351 57 107 132 145 153 155 150 150 144 151 150 148 147 144 142 140 138 137 135 131 128 126 123 118 115 109 105 102 101 100 101 105 107 110
222 225 237 249 219 63 359 6 357 189 173 196 215 147 103 55 108 137 148 158 155 151 152 145 155 152 151 149 148 145 143 141 139 136 133 132 129 123 117 113 107 103 100 98 98 100 105 111 117
240 253 238 213 125 83 298 313 262 229 195 194 222 182 111 99 122 142 155 160 156 156 153 146 155 153 153 152 151 149 147 144 141 139 136 133 128 120 116 111 108 102 99 97 95 96 102 111 119
239 246 243 158 102 99 188 239 233 241 226 198 222 222 98 115 143 151 159 162 160 158 153 145 154 155 155 154 154 153 150 146 143 140 137 133 128 123 120 115 110 104 100 98 96 93 97 104 114
268 263 260 314 94 123 46 317 256 255 235 209 216 215 122 138 145 155 160 163 162 161 153 151 158 159 158 157 157 156 152 147 144 141 137 134 131 127 123 118 114 109 104 102 98 95 93 97 110
279 268 225 200 260 54 55 283 282 278 265 152 209 226 149 149 152 156 160 164 163 163 158 156 163 159 163 161 159 158 154 149 146 144 142 139 139 137 132 142 122 117 113 108 102 97 95 98 109
258 252 226 100 314 338 337 285 264 260 232 190 209 278 106 143 154 158 163 165 166 167 164 163 162 162 166 162 156 162 157 152 155 155 151 167 169 154 160 120 120 127 124 117 110 105 107 127 131
244 258 343 348 308 310 306 287 265 229 224 212 191 139 132 149 160 167 170 172 171 172 171 168 165 164 167 163 157 165 167 160 177 158 164 177 153 151 137 120 139 139 136 144 127 126 172 211 157
243 273 316 299 294 297 292 279 254 251 248 235 211 171 159 162 168 174 178 180 177 172 171 170 167 167 169 163 162 166 166 160 170 160 165 160 166 164 164 160 161 168 179 181 153 190 197 176 117
255 269 280 286 299 291 287 283 262 254 278 330 216 167 167 172 175 178 180 183 179 174 174 173 168 170 175 170 166 169 167 165 167 157 176 169 179 178 163 178 168 178 175 163 195 184 170 163 174
247 277 288 287 285 286 278 268 270 268 281 168 160 164 175 179 178 180 178 181 180 177 176 174 173 172 171 172 179 175 169 168 162 163 173 181 183 184 174 180 193 204 165 178 193 191 170 182 185
288 289 285 283 286 273 271 267 244 273 311 182 175 177 180 181 179 177 175 177 180 180 177 174 175 175 174 175 181 175 171 167 165 169 167 187 189 182 187 190 194 201 197 184 193 176 180 197 180
280 278 268 237 284 305 284 251 212 24 188 187 182 179 177 180 181 182 179 179 178 178 177 177 177 178 179 179 180 179 175 169 173 161 161 177 190 181 199 198 201 191 176 173 204 180 188 193 186
250 252 253 139 308 324 282 300 83 128 195 188 179 174 174 181 186 182 181 182 177 176 178 180 181 178 181 179 178 176 176 165 169 163 162 174 177 189 210 205 200 181 204 199 188 207 193 189 197
228 251 281 289 197 303 283 305 46 149 205 190 181 177 178 181 188 185 185 183 179 177 175 180 182 176 178 174 175 172 166 167 168 164 168 169 182 189 210 214 173 197 204 207 213 185 216 184 193
265 281 283 304 336 304 291 302 336 185 212 200 188 184 186 190 190 186 186 186 181 178 177 182 182 177 173 167 166 162 165 170 174 171 163 174 181 187 206 195 185 213 202 198 203 167 208 203 202
288 282 285 303 327 303 300 309 318 194 208 203 199 196 197 200 188 181 185 187 184 183 178 181 182 178 175 172 171 167 171 170 174 174 167 180 185 178 207 199 173 216 199 204 197 196 182 200 193
259 267 274 286 325 301 305 300 299 196 210 214 206 202 204 198 188 183 188 192 193 187 183 180 183 180 180 175 170 169 164 170 166 166 164 181 181 183 191 200 196 194 185 194 202 218 228 187 208
250 260 283 306 308 253 289 269 178 171 195 202 207 207 203 199 193 189 193 196 193 189 185 183 183 183 179 169 159 155 152 161 164 172 172 179 181 186 193 192 214 191 215 188 205 209 223 215 199
248 253 278 290 292 307 317 306 145 171 197 199 200 198 197 192 191 190 191 189 188 187 183 180 177 178 173 169 172 172 176 176 172 172 163 170 179 182 181 186 190 206 218 175 208 201 228 232 212
256 277 274 281 282 286 268 290 9 172 222 190 186 190 188 184 186 186 187 185 184 181 177 174 173 172 173 177 177 180 180 172 161 162 158 177 170 180 178 177 179 190 204 183 218 178 238 226 237
237 242 247 251 261 267 314 298 323 65 343 154 163 174 179 174 175 174 176 172 169 168 168 168 168 169 172 177 179 185 178 170 162 169 168 182 171 177 173 176 178 191 181 171 192 203 202 244 255
220 238 242 237 234 259 87 281 333 40 65 190 167 165 168 169 170 168 169 169 166 165 165 165 167 169 171 176 183 183 178 173 175 179 181 186 176 174 169 175 178 182 173 181 187 199 204 201 205
221 238 251 272 280 293 197 279 13 87 139 160 161 158 164 168 169 166 166 168 168 165 164 165 168 169 170 175 179 178 176 178 178 185 184 187 186 173 162 177 183 186 188 191 188 206 191 191 212
221 233 255 266 270 278 278 281 175 152 173 172 166 164 169 167 163 162 163 166 164 164 165 167 167 168 171 172 169 172 178 179 173 176 192 185 178 170 174 185 189 193 195 200 201 208 197 193 219
252 250 233 250 263 271 268 269 327 176 183 177 178 173 166 166 163 159 163 162 160 161 161 165 167 168 170 172 171 169 174 175 176 183 187 183 182 184 185 193 198 199 198 200 210 208 195 209 218
200 219 238 251 265 276 282 296 59 18 189 183 179 174 167 168 164 160 161 161 161 161 160 162 163 165 170 172 172 171 174 176 178 185 189 187 191 192 199 202 205 206 205 205 210 227 205 217 218
238 235 229 244 247 250 276 290 97 117 166 177 170 166 164 165 162 158 158 161 163 164 163 162 165 167 168 169 171 174 173 175 182 186 190 193 196 203 205 208 210 213 212 210 214 223 219 221 225